Theta_e
303 303 303 303 303 303 303 303 303 303 303 303 303 303 302 303 303 302 302 304 304 305 305 305 306 306 306 306 306 306 307 307 308 308 309 309 308 309 310 310 311 311 312 313 313 313 315 315 315 315 314 313 312 312 312 313 317 321 322 321 320 322 325 322 319 321 321 320 321 321 321 322 322 323 324 323 322 322 320 322 323 319 317 318 319 318 320
303 303 303 304 303 303 303 303 303 303 303 303 303 303 303 302 302 302 302 303 304 305 304 304 304 305 305 305 305 306 307 307 307 308 308 308 308 308 309 309 310 310 311 312 312 313 314 314 313 312 313 313 312 312 312 312 317 319 319 319 319 321 324 323 320 320 320 320 321 320 319 319 320 322 323 322 323 323 321 326 326 320 318 318 318 317 320
303 303 303 303 303 303 303 303 303 303 303 303 303 303 303 303 303 303 302 303 304 304 304 304 304 304 304 304 304 305 306 307 307 307 308 308 307 308 308 309 310 309 310 312 312 311 312 313 312 311 312 312 311 312 312 312 316 318 318 318 319 321 324 324 322 321 320 321 321 320 319 321 321 322 323 322 323 322 321 323 321 319 321 321 318 318 322
303 303 303 303 303 303 303 303 303 303 303 303 303 303 303 303 302 303 303 303 304 304 304 304 304 303 304 304 304 304 305 306 307 307 308 307 307 308 309 309 309 309 310 311 311 311 311 311 312 311 311 311 310 311 311 312 315 317 316 317 319 321 323 324 324 324 323 323 323 322 321 322 321 321 323 323 322 322 322 321 320 322 324 321 321 324 323
303 303 303 303 303 303 303 303 303 303 303 303 303 303 303 303 302 302 303 303 304 304 304 304 304 304 304 303 303 304 304 305 305 307 307 307 307 308 308 308 308 308 309 310 311 311 310 310 311 311 311 310 310 311 311 312 314 315 314 315 318 320 321 322 323 323 320 320 321 320 320 321 321 321 323 323 323 323 321 319 323 328 322 317 325 333 326
303 303 303 303 303 303 303 303 303 303 303 303 303 303 303 303 302 303 303 303 303 303 303 304 304 303 304 304 304 304 304 304 304 305 306 307 307 308 308 307 307 307 308 309 310 310 310 311 311 310 311 311 310 311 312 312 313 313 312 314 316 318 319 320 318 318 318 317 318 319 320 321 321 321 322 323 324 324 321 321 325 328 322 319 331 340 330
303 303 303 303 304 303 303 303 303 303 303 303 303 303 303 303 303 303 303 303 303 303 303 304 304 303 304 305 304 304 303 303 304 304 305 305 306 307 307 307 306 306 307 308 309 310 310 310 310 310 310 310 310 311 312 311 312 312 311 312 315 316 319 319 316 316 317 317 318 319 319 320 320 320 321 321 322 323 323 324 324 325 323 323 331 339 334
303 303 303 303 303 303 303 303 303 303 303 303 303 303 303 303 303 303 303 303 303 303 303 304 303 303 304 304 304 303 303 303 304 304 304 305 306 306 306 306 306 306 307 308 308 309 309 309 309 309 309 310 311 311 311 311 311 311 310 312 313 314 317 318 315 316 317 317 318 318 318 319 319 319 320 321 322 323 322 324 324 323 325 323 325 332 332
303 303 302 303 303 303 303 303 303 303 303 303 303 303 303 303 302 302 302 303 303 303 304 303 302 302 303 303 303 303 303 303 304 304 305 305 305 305 304 305 306 306 306 307 308 308 307 307 308 308 308 309 310 310 311 310 310 310 311 312 313 313 314 316 315 316 317 317 318 317 317 319 319 319 321 321 322 322 323 325 325 323 324 324 323 324 327
303 303 303 303 303 303 303 303 303 303 303 303 303 303 303 303 303 302 302 302 303 303 303 302 302 302 303 303 303 303 303 304 304 304 305 305 305 304 305 305 306 306 306 307 307 307 307 307 308 308 308 309 309 309 310 310 310 310 311 311 312 313 314 314 314 316 317 316 316 317 318 318 319 319 321 324 324 323 323 323 325 325 324 324 323 322 326
303 303 303 303 303 304 304 303 303 303 303 303 303 303 303 303 303 303 303 303 303 303 302 302 302 302 303 303 303 303 303 304 304 304 304 304 305 305 305 306 306 306 306 307 307 307 307 307 308 309 309 309 309 310 310 310 310 310 311 311 312 313 314 314 314 315 316 316 316 317 318 319 319 320 324 328 329 328 327 325 325 325 323 324 325 326 329
303 304 303 303 304 304 304 304 303 303 303 303 303 303 303 303 303 303 303 303 303 303 302 302 302 303 303 303 303 303 303 303 304 304 304 304 305 305 305 306 306 306 306 307 307 307 307 308 308 309 309 309 310 310 309 309 310 310 311 311 311 313 314 315 315 314 314 316 317 319 320 320 320 322 328 331 331 332 332 331 329 327 327 325 324 324 330
303 303 304 304 304 304 304 304 304 303 303 303 303 303 303 302 302 303 303 303 303 303 303 303 303 303 303 303 303 303 303 303 303 304 304 304 305 305 305 306 306 306 306 306 307 307 308 309 309 310 310 310 310 310 309 309 309 310 311 311 311 312 313 315 315 314 314 316 317 319 321 319 318 324 331 332 332 333 334 332 331 333 334 334 331 328 328
302 302 303 303 304 304 305 305 304 304 303 303 302 303 303 303 302 303 303 303 303 303 303 303 303 303 303 304 303 303 303 303 303 304 304 304 305 305 305 305 306 306 306 307 308 309 310 310 309 310 310 310 309 310 310 310 310 310 310 311 311 311 312 314 314 314 314 315 316 318 319 317 319 329 333 331 332 334 334 334 335 335 335 336 337 337 335
302 302 302 302 303 305 305 305 305 304 304 303 303 303 303 303 303 302 303 303 303 303 303 303 303 303 303 304 303 303 302 303 303 304 304 304 305 305 304 305 305 305 306 308 308 310 311 310 309 309 309 308 308 308 310 311 311 310 310 310 311 311 312 314 313 313 314 314 315 317 317 318 325 332 332 331 332 333 332 334 336 335 334 334 335 337 338
302 302 302 302 303 305 305 306 305 305 304 304 304 303 303 302 303 302 302 302 303 303 303 303 303 303 303 303 303 303 302 303 303 303 303 304 304 304 304 305 305 305 307 309 309 310 311 310 309 309 309 309 309 309 310 311 311 312 311 311 311 311 312 313 313 313 314 313 313 316 317 320 329 333 331 331 333 333 332 331 333 334 334 333 335 336 337
301 302 302 303 304 305 306 306 306 306 305 304 304 303 303 303 302 302 302 302 303 303 303 303 303 303 303 303 303 303 303 303 303 303 303 303 303 304 305 305 305 305 307 309 310 310 310 309 310 310 309 310 310 309 311 311 312 314 314 312 311 312 312 312 312 313 315 315 314 314 316 320 327 330 330 332 333 333 331 328 330 333 333 333 335 336 337
301 301 302 303 304 305 305 306 306 306 305 305 304 304 303 303 302 302 302 302 303 303 303 303 303 303 303 303 303 303 303 303 303 303 303 303 303 305 305 304 304 305 307 309 309 309 308 309 309 309 309 310 309 310 312 312 313 315 315 314 313 313 312 312 312 312 314 315 315 314 315 319 324 328 332 333 333 333 331 329 332 333 332 333 335 336 338
301 301 301 303 304 304 304 305 306 307 306 306 305 304 304 303 303 302 302 302 302 303 303 303 303 303 303 303 303 303 303 303 303 303 302 303 304 304 304 304 304 305 307 309 308 307 307 308 309 309 310 311 311 310 312 312 313 314 313 313 315 315 313 313 313 312 313 315 316 316 316 320 326 330 333 333 330 330 332 332 332 332 333 334 335 335 337
300 301 302 303 304 306 305 305 306 307 307 306 306 305 304 304 303 303 303 303 303 303 303 302 302 302 303 303 303 303 303 303 303 303 302 303 304 304 303 304 304 305 307 308 307 307 307 307 308 308 309 310 311 311 311 311 311 311 311 312 315 316 315 315 314 313 313 314 315 316 319 324 329 330 330 331 329 330 332 332 332 333 334 334 334 335 336
301 302 302 303 306 308 308 307 306 307 307 306 306 306 305 304 304 303 302 302 302 303 303 302 302 302 302 302 303 303 303 303 303 303 303 303 303 303 303 304 304 304 306 307 306 307 307 307 308 309 308 309 310 310 310 310 310 310 312 312 314 315 317 317 316 315 314 314 315 319 323 328 331 331 330 331 332 332 332 331 332 333 332 331 331 334 336
302 303 304 305 307 308 308 307 307 307 307 307 307 306 305 305 304 304 303 302 302 303 302 302 302 302 302 302 302 302 302 302 302 303 303 303 303 303 303 304 304 304 305 306 306 307 307 308 308 308 308 309 310 310 310 310 310 310 311 312 314 315 315 316 317 317 316 316 318 322 324 326 329 333 334 333 331 330 330 330 331 331 329 328 328 330 333
303 304 305 307 309 308 307 307 307 307 307 307 307 306 306 305 305 304 303 303 303 303 302 302 302 302 302 301 301 302 302 302 302 303 302 303 303 304 304 304 304 304 305 305 306 306 307 308 308 308 309 309 310 310 310 309 309 310 310 311 313 313 312 314 316 316 316 317 320 321 322 324 328 332 333 332 330 329 329 328 329 328 327 326 327 328 330
304 305 306 308 308 307 306 307 307 308 308 307 307 307 306 306 305 304 304 303 303 303 303 303 302 302 302 301 302 302 303 303 303 303 303 303 303 304 304 304 304 305 305 305 305 306 306 308 308 309 308 309 309 309 309 309 309 310 310 310 311 311 312 313 314 314 315 317 320 322 323 325 328 330 331 330 329 328 327 327 328 328 327 327 328 329 330
305 306 307 308 307 306 306 307 307 308 308 308 307 307 307 306 305 304 304 304 303 303 303 303 303 302 302 302 302 302 302 303 303 303 304 303 303 304 304 305 304 305 305 305 305 306 307 307 308 308 308 309 309 309 309 310 310 310 310 310 310 311 312 312 312 314 315 316 318 320 319 319 321 325 329 330 329 327 327 328 329 329 328 329 331 332 333
306 307 308 308 307 306 307 307 307 308 309 309 308 307 307 306 306 305 304 304 303 302 302 303 303 302 302 302 302 302 302 302 303 303 304 304 304 304 304 304 305 305 305 305 306 306 307 307 307 307 308 309 309 310 310 310 310 310 310 309 309 310 311 311 311 313 314 314 316 318 320 320 321 324 328 329 329 328 328 328 329 330 330 330 332 333 335
306 307 307 306 306 307 308 307 307 308 309 309 308 307 307 306 306 305 304 303 303 303 302 302 303 302 302 302 303 303 304 304 304 304 304 304 304 304 304 304 305 305 305 305 305 306 306 306 307 307 307 308 309 310 310 310 310 310 310 309 310 311 311 311 312 313 314 315 317 320 323 324 323 323 326 328 328 328 328 327 328 329 330 331 332 332 333
307 307 306 306 307 308 308 308 308 309 309 309 308 307 307 306 306 305 304 303 303 303 302 302 302 302 303 304 304 304 304 305 305 304 304 304 304 304 304 304 304 305 305 305 305 305 305 306 307 307 308 309 309 310 311 311 310 310 310 310 311 311 311 311 313 313 314 315 316 318 320 320 319 319 323 327 328 327 326 325 325 327 329 331 332 331 331
307 306 306 307 309 310 309 308 309 310 310 309 307 307 306 306 306 305 305 303 303 303 303 302 302 303 303 304 304 305 305 305 305 305 305 305 304 304 305 305 305 305 305 305 305 306 306 306 307 307 309 310 310 310 310 310 310 310 310 311 311 311 311 312 312 313 313 313 314 315 317 318 318 318 321 325 328 327 326 325 326 326 327 330 331 331 329
306 305 307 309 310 311 311 310 310 311 311 309 307 306 306 306 305 305 305 304 304 304 304 303 303 303 303 303 304 305 305 305 305 305 305 305 305 305 305 305 305 305 305 305 306 306 307 307 307 307 308 309 309 309 310 310 310 310 310 310 310 311 311 311 312 312 313 313 313 314 316 316 317 317 319 324 327 327 326 326 326 326 327 330 331 330 329
305 306 309 311 311 312 312 311 311 311 311 309 307 306 305 305 305 305 305 304 303 303 304 304 303 303 303 303 304 305 305 305 306 306 306 306 306 306 305 305 305 306 306 306 306 306 307 307 308 308 309 309 310 310 310 310 310 311 311 310 311 311 311 311 311 312 312 312 313 314 315 315 316 318 322 325 327 326 326 325 325 327 329 331 330 330 330
306 309 310 311 312 312 312 312 312 311 310 309 309 307 306 306 306 305 304 304 303 303 303 303 303 304 304 305 305 305 306 307 308 308 308 308 308 308 307 306 306 306 306 307 307 307 307 308 308 308 309 311 311 312 311 310 310 311 311 310 311 311 311 311 311 311 312 313 314 316 317 318 319 322 324 326 326 325 325 326 327 328 329 329 327 327 329
309 310 311 311 312 313 312 312 312 311 310 310 309 308 308 307 306 305 304 304 303 302 303 303 303 304 305 305 305 306 307 308 309 309 310 310 310 309 308 307 306 306 306 307 307 307 308 309 309 309 309 310 311 312 311 311 311 311 310 310 311 311 311 311 311 312 313 315 316 318 319 321 322 323 324 324 324 323 324 326 327 327 326 325 325 325 325
310 311 312 312 313 313 313 312 312 311 310 310 310 309 308 308 307 305 305 304 303 302 302 303 303 304 304 305 306 307 308 309 309 310 310 311 310 310 310 308 307 307 307 307 308 309 309 310 311 311 311 312 312 312 311 311 312 312 312 312 312 312 312 313 313 313 315 317 318 319 320 322 323 323 323 322 322 322 323 325 326 325 323 324 325 326 324
311 312 313 313 313 313 313 312 312 311 311 310 310 309 309 309 308 307 306 305 303 303 303 303 303 304 304 305 306 307 308 309 310 310 311 311 311 311 311 310 308 308 308 308 309 310 311 311 312 313 313 313 313 313 313 313 313 313 313 314 314 314 315 315 314 315 318 320 321 321 322 323 324 323 323 322 321 321 322 323 324 325 325 325 326 326 324
312 313 313 314 314 313 313 312 312 311 310 310 309 309 309 309 308 307 306 305 304 303 303 303 304 304 305 306 307 307 308 310 311 311 311 312 311 311 312 311 310 310 310 309 310 311 312 312 313 313 314 314 314 314 314 314 314 313 314 315 315 316 316 315 315 317 319 321 322 323 323 324 324 322 322 321 320 320 321 322 322 323 323 323 323 323 322
313 314 314 314 314 313 313 312 311 311 310 310 309 309 309 308 307 306 306 305 305 304 303 303 304 304 305 306 307 307 308 310 311 310 311 313 313 312 312 312 312 312 312 312 312 313 313 313 313 314 314 314 314 314 313 313 313 314 314 316 317 317 317 317 318 319 320 322 323 323 323 324 324 323 322 321 320 319 321 322 321 321 320 320 319 320 320
314 314 314 314 314 313 313 312 311 311 310 310 310 309 308 307 306 306 306 305 305 305 304 303 303 304 305 306 306 307 308 309 309 309 311 312 313 313 313 313 313 313 313 313 313 313 314 314 314 313 314 314 313 312 312 312 312 314 316 317 319 320 320 320 321 321 321 322 323 322 322 323 324 323 322 321 319 319 320 321 322 322 322 321 321 321 320
314 314 314 314 314 313 313 312 312 312 311 310 310 310 309 307 306 305 305 304 304 304 304 303 303 304 304 305 306 306 307 307 308 309 311 312 312 312 313 313 313 312 312 312 312 312 313 313 312 311 312 312 312 312 313 313 314 316 318 319 320 321 322 322 322 322 321 323 323 322 322 323 324 323 322 321 319 318 319 320 322 322 322 322 323 324 322
315 315 315 314 314 314 314 313 313 312 312 311 310 310 309 308 307 306 304 304 304 304 304 304 304 304 304 305 306 307 307 308 308 310 311 312 312 312 312 312 312 312 312 312 311 311 311 312 311 311 312 313 313 315 316 317 318 319 319 317 318 321 322 322 322 322 322 323 323 323 323 324 323 322 321 319 319 320 322 323 324 324 324 324 326 327 327
314 314 315 314 314 314 314 313 313 313 312 311 311 311 311 310 309 307 306 307 307 307 305 305 307 308 307 306 306 307 308 308 309 310 311 311 311 311 311 310 310 311 312 312 310 308 309 311 312 312 313 314 315 317 318 317 317 318 318 316 317 320 321 321 322 323 322 322 322 322 322 322 321 320 320 320 321 323 325 325 325 326 326 327 328 329 329
314 314 314 314 314 314 314 314 313 313 313 313 313 313 313 313 313 311 310 310 311 310 308 308 309 311 310 308 307 308 309 309 310 310 311 311 310 310 309 308 308 311 313 311 309 308 310 312 314 314 314 315 315 315 316 316 316 317 317 316 317 319 320 321 322 323 323 322 322 321 320 320 321 322 323 323 324 324 324 324 326 327 327 328 329 329 329
314 314 314 314 314 314 314 314 313 313 314 313 313 314 314 314 315 316 315 314 313 313 312 311 311 312 311 310 310 310 310 310 310 311 311 310 309 308 308 308 310 313 313 310 309 310 312 314 315 315 314 314 313 313 314 315 315 315 316 316 316 318 319 319 321 322 323 323 323 323 322 323 324 325 326 326 325 325 325 325 327 327 326 327 327 327 326
314 314 314 314 313 313 315 315 313 313 314 314 313 314 315 315 316 317 317 316 315 316 316 315 314 314 314 312 312 312 312 311 311 311 311 311 310 309 310 312 313 314 313 311 311 312 313 313 314 315 314 313 312 312 312 312 313 313 314 314 315 316 317 317 319 321 321 321 322 322 323 323 324 324 325 326 326 326 326 326 326 326 325 326 325 324 323
314 314 314 314 313 313 315 315 313 313 314 314 314 314 315 315 315 316 315 315 315 316 316 316 316 317 316 314 314 315 315 314 313 313 314 314 313 313 314 315 315 315 314 313 313 314 313 313 314 314 313 312 311 311 310 311 311 312 313 313 313 314 315 316 317 318 319 319 319 320 320 321 322 322 323 324 324 324 324 324 324 324 324 324 323 322 320
313 313 313 313 313 313 313 314 313 313 313 314 314 314 314 314 314 315 314 314 314 315 316 316 316 317 317 317 317 317 316 316 316 316 315 316 316 316 316 316 315 315 316 316 315 314 314 313 313 313 312 311 310 310 309 310 310 310 311 312 312 313 314 315 315 316 316 316 316 316 317 317 318 319 320 321 321 322 322 322 322 322 321 320 319 319 318
313 313 312 313 313 313 313 313 313 313 313 313 313 313 314 314 314 314 314 314 314 315 315 315 316 317 316 316 317 317 316 317 317 317 316 316 317 316 316 316 315 314 316 316 315 313 313 313 312 312 311 310 309 309 309 309 309 310 310 311 312 313 314 314 315 315 315 314 315 315 316 316 316 316 317 318 318 318 318 319 320 320 320 319 319 318 318
313 313 313 313 313 313 313 313 313 313 312 312 313 313 313 314 314 314 315 315 315 315 315 315 316 317 316 316 317 318 317 316 317 316 315 316 316 315 315 316 315 315 315 316 314 313 313 312 311 310 310 309 309 309 308 308 309 309 309 310 311 313 314 314 314 314 315 316 316 316 316 317 317 318 318 318 318 318 318 318 319 319 319 319 319 320 320
312 312 313 313 313 313 313 313 313 313 312 312 312 312 312 313 313 314 314 315 315 315 315 315 316 317 317 316 317 317 316 316 315 315 315 315 315 314 314 315 315 315 315 315 314 314 313 312 310 309 309 309 308 308 308 308 308 309 309 310 311 312 314 315 315 315 315 316 317 317 317 317 318 318 318 318 318 318 318 318 318 317 317 317 317 318 319
312 312 312 312 313 313 313 312 312 312 312 312 312 311 312 312 312 312 313 314 314 315 315 315 315 316 315 315 315 316 315 316 315 314 314 315 314 313 313 314 314 313 314 314 313 312 312 310 309 309 308 308 308 308 307 307 308 308 309 309 310 311 312 313 314 315 316 316 316 317 317 317 317 316 316 316 316 316 317 317 316 316 316 316 316 316 317
313 312 312 312 312 312 312 312 312 311 312 312 312 311 311 311 311 311 312 313 314 314 315 316 316 315 314 314 315 316 316 316 315 314 314 315 314 313 312 312 312 312 312 311 310 309 309 308 308 308 308 307 307 307 307 307 307 307 307 307 307 308 309 310 311 313 314 315 315 315 315 315 315 315 315 315 315 315 316 316 316 315 315 315 315 315 316
313 312 312 312 311 311 311 312 312 311 311 311 311 310 310 310 310 310 311 312 313 313 314 315 314 314 313 314 315 316 316 315 314 314 314 314 314 313 312 311 311 310 311 310 309 308 308 308 308 307 307 306 306 306 306 306 306 306 306 306 306 306 306 306 307 308 310 312 314 315 314 314 315 315 315 315 315 315 315 315 315 315 315 315 315 315 315
Wind_Speed
24 25 26 27 28 28 29 29 28 28 28 29 31 25 16 11 11 13 17 17 16 9 3 6 5 2 7 10 9 8 7 8 10 10 10 9 7 5 4 5 4 2 2 3 3 3 3 3 4 4 5 6 5 10 16 15 10 6 3 3 4 3 1 4 4 1 1 2 5 7 4 5 10 11 11 12 12 13 12 6 4 7 7 5 5 8 4
24 25 25 26 27 27 28 28 27 27 26 27 28 21 14 12 13 13 16 17 16 10 4 6 5 5 10 11 9 8 6 7 9 9 9 9 7 5 5 6 6 4 4 3 4 4 3 3 5 4 3 4 6 13 16 14 9 6 6 6 4 2 1 3 5 4 5 6 7 7 5 4 7 8 10 13 14 17 15 5 2 6 11 12 9 9 4
24 25 25 26 27 27 27 27 26 26 25 25 25 20 15 12 9 11 17 16 15 11 6 6 5 7 11 11 9 8 7 9 10 8 9 10 9 7 6 8 7 6 5 2 5 6 3 3 4 4 4 4 6 13 15 11 9 8 10 10 4 1 1 1 5 8 10 8 7 6 3 3 3 4 8 13 17 20 15 5 4 8 10 12 13 8 2
24 24 24 25 26 26 27 26 25 25 24 23 23 18 13 9 4 8 14 12 10 9 8 9 7 7 10 9 7 8 8 9 10 8 7 10 13 9 7 10 9 8 8 3 4 6 5 3 4 4 5 4 5 12 12 8 11 11 13 14 6 1 1 2 1 2 2 1 1 2 3 1 2 2 3 7 13 18 15 9 7 6 5 9 13 9 5
23 24 24 24 26 26 26 26 25 24 23 22 21 16 10 5 3 6 9 7 7 8 8 11 10 8 9 6 5 9 10 8 9 8 5 8 13 8 6 12 10 8 10 6 3 5 4 4 5 5 5 4 6 10 7 6 12 12 11 13 7 0 2 3 3 4 4 5 6 5 4 4 5 6 6 5 7 13 17 14 8 7 6 11 10 7 10
23 24 24 24 25 25 26 25 24 23 22 21 19 14 8 5 5 8 6 4 6 7 9 12 12 11 10 4 4 9 11 8 8 8 6 7 9 5 5 11 12 11 11 7 3 5 3 3 5 5 6 5 6 8 4 4 12 13 9 10 6 1 1 3 4 6 5 7 8 5 3 5 6 7 9 9 8 9 13 14 10 10 10 12 7 8 11
22 23 23 23 24 25 25 25 23 22 21 19 16 11 7 6 6 8 6 5 8 10 11 13 11 10 9 4 4 9 11 10 9 6 6 5 7 6 6 10 12 11 11 7 5 5 3 3 4 6 7 7 5 5 2 3 10 13 8 6 5 2 1 4 6 7 6 7 7 4 2 4 7 9 10 12 12 11 10 11 13 13 14 14 10 9 11
22 22 22 23 23 24 24 24 22 21 20 18 13 9 8 7 6 8 8 8 11 11 10 10 9 8 7 4 6 9 11 12 11 8 7 5 4 8 8 10 11 10 9 8 5 5 6 5 4 5 7 5 3 3 2 3 8 10 6 5 5 4 1 4 6 6 5 5 5 4 5 7 9 10 11 11 12 12 12 11 12 12 12 14 14 11 8
23 22 21 22 22 23 23 23 21 20 19 17 12 9 10 10 9 9 8 7 8 9 9 8 7 5 5 5 8 9 10 12 13 10 6 3 2 8 10 11 9 8 8 7 5 7 9 8 8 8 7 6 5 4 3 4 7 6 4 4 5 4 2 2 4 4 4 4 6 9 12 11 11 12 12 13 13 12 11 9 9 10 9 11 14 11 6
24 22 21 21 21 22 23 22 20 19 18 16 12 10 11 12 11 10 7 4 5 7 7 7 7 5 5 8 10 10 10 12 13 9 2 0 3 8 11 10 8 6 6 7 9 13 15 14 13 13 12 11 11 11 10 9 6 3 4 4 3 3 3 2 2 3 4 4 7 10 12 9 9 9 8 10 12 12 12 12 11 11 9 8 9 7 4
24 24 22 21 20 21 22 21 20 19 17 15 13 12 11 10 11 10 6 4 5 6 6 6 5 5 8 13 12 10 11 12 12 8 5 7 11 12 12 10 7 4 5 9 14 18 20 20 18 16 15 14 14 14 14 13 10 8 5 3 3 4 3 3 2 2 5 6 8 9 8 7 4 1 1 4 7 8 10 12 12 11 11 9 8 6 6
24 24 24 22 20 20 21 21 20 19 17 15 13 13 11 9 10 9 5 4 6 7 6 7 8 9 13 15 12 10 11 12 13 13 11 12 15 14 11 8 5 4 6 14 20 20 18 17 15 13 13 14 15 15 14 13 13 12 11 8 5 4 4 3 2 2 4 5 6 6 7 5 4 2 1 3 4 4 8 10 9 8 9 11 12 11 10
25 24 24 24 21 19 19 19 19 18 17 16 14 13 12 10 9 9 7 6 6 7 7 10 13 14 13 11 9 11 13 14 16 15 13 12 14 14 10 7 6 9 13 16 18 15 11 9 8 7 8 9 10 12 15 15 15 15 14 12 9 7 5 3 3 4 3 2 5 6 3 9 12 3 4 2 2 2 7 6 3 3 5 5 8 10 10
26 26 25 24 23 21 19 18 19 18 16 16 15 14 12 10 9 10 9 6 6 9 10 10 10 9 8 8 10 12 14 15 14 11 11 12 12 12 11 10 11 15 15 13 11 8 4 3 4 4 3 4 5 7 11 14 16 17 16 14 11 9 7 4 4 5 5 5 8 7 6 13 13 2 5 2 1 2 4 3 1 4 6 6 6 7 9
28 28 27 26 24 22 20 19 19 18 17 16 15 14 13 11 10 11 11 8 7 10 11 9 8 8 8 10 11 11 10 11 10 10 11 11 9 10 12 14 16 16 13 8 4 3 2 2 3 3 2 2 2 2 4 6 9 13 16 15 13 11 9 6 5 6 6 6 8 7 8 9 5 3 2 1 2 2 2 2 2 2 5 8 7 7 9
30 29 30 29 26 23 21 20 19 19 18 17 16 16 14 11 10 11 12 10 8 6 6 6 8 10 11 13 13 10 8 7 7 9 8 7 9 13 14 15 17 15 10 5 2 2 2 2 2 3 2 2 2 2 1 1 2 4 8 12 14 13 10 7 6 6 6 8 8 8 8 5 3 4 1 2 1 4 4 4 3 2 7 10 8 8 10
29 29 29 30 29 27 24 21 19 18 19 18 17 17 15 12 11 12 12 11 10 10 12 12 12 13 12 11 10 9 7 7 8 7 5 8 13 15 15 17 16 11 6 4 2 1 2 3 3 3 3 2 3 4 2 2 2 1 3 6 12 12 8 7 8 8 7 8 8 7 6 3 3 2 3 3 2 6 5 5 2 3 8 11 9 10 12
30 29 28 28 28 28 26 24 21 18 19 19 18 18 17 13 11 11 12 12 11 11 13 12 11 13 11 9 10 10 8 8 8 6 6 10 11 10 13 16 12 6 6 4 2 1 3 3 3 4 4 1 2 5 3 2 3 1 3 1 6 8 7 8 9 9 9 10 9 7 6 3 3 2 1 1 4 5 5 4 1 3 7 10 10 11 12
32 31 30 28 27 26 26 26 23 19 18 18 19 20 18 14 12 12 14 15 13 13 13 11 12 16 15 13 15 15 11 10 9 6 6 7 6 10 14 11 4 4 5 3 1 2 2 2 2 3 3 1 1 3 3 1 2 2 3 2 3 5 6 7 8 8 8 8 8 7 6 2 5 4 1 3 4 4 3 1 2 4 7 9 10 9 10
34 33 31 29 27 26 24 25 24 21 18 18 19 21 20 18 15 14 15 16 16 19 22 19 17 19 18 16 17 16 12 11 10 7 6 7 8 12 10 3 1 4 4 2 2 2 1 2 2 1 2 1 1 2 2 2 4 4 3 4 3 3 4 6 8 8 7 7 8 8 5 0 6 7 4 4 4 3 3 3 4 4 6 9 10 9 9
35 35 33 29 27 28 26 25 24 22 19 19 19 21 22 21 17 14 15 16 16 17 17 13 12 15 17 18 20 19 18 18 16 12 12 12 10 7 4 2 4 5 2 2 3 1 1 2 2 1 2 2 1 2 3 4 4 2 3 4 4 3 3 3 4 4 5 7 7 4 3 4 3 5 4 4 3 1 1 3 3 3 6 7 9 11 11
37 36 32 27 27 29 29 26 24 22 20 18 19 20 22 22 19 15 14 15 18 21 22 21 23 26 27 26 25 24 24 24 23 20 18 16 13 10 10 10 9 6 3 3 3 2 1 2 2 2 4 2 2 4 4 4 3 1 2 4 3 1 1 3 4 3 4 6 7 8 12 15 15 14 6 2 3 3 4 3 1 2 5 7 8 11 11
38 36 31 27 28 31 30 26 24 23 20 17 18 21 23 23 21 17 15 17 20 24 27 28 26 26 27 24 18 15 15 16 18 20 20 18 15 13 14 14 11 7 6 6 5 3 2 2 2 3 4 2 2 4 4 3 4 5 4 5 5 5 7 5 3 4 7 9 11 14 18 19 17 15 10 3 4 3 3 3 3 4 6 7 6 8 9
38 35 30 28 30 32 30 26 23 22 20 17 18 20 22 23 20 18 17 16 16 18 19 18 17 18 19 14 7 4 6 7 9 11 16 19 16 11 13 15 12 8 9 10 9 6 4 3 3 3 3 2 1 3 4 4 5 5 5 7 7 6 5 4 4 5 7 6 7 10 14 17 15 13 10 7 5 4 5 7 8 7 6 7 7 6 6
37 34 30 30 32 32 30 27 24 21 19 17 17 18 21 23 21 19 17 15 14 11 8 10 14 14 10 7 8 10 10 10 10 11 13 20 22 18 15 14 11 10 11 10 8 7 6 4 3 4 5 3 2 3 5 4 4 4 5 6 6 4 4 5 6 6 5 7 11 14 18 23 24 19 14 10 8 6 7 13 12 8 6 6 6 4 4
36 33 32 33 33 32 30 27 24 22 19 17 17 17 20 22 21 20 19 17 16 13 9 11 15 14 11 15 20 20 18 15 13 14 16 20 22 22 21 19 15 13 13 11 9 9 8 5 3 5 5 3 3 3 4 5 6 6 8 9 9 8 8 7 7 7 7 11 15 15 15 18 20 21 19 15 11 7 7 15 13 7 5 7 6 5 4
35 33 33 34 34 33 30 26 24 21 18 16 15 16 19 21 22 21 20 18 15 10 6 6 11 16 22 24 19 14 13 11 8 11 16 19 20 22 23 23 21 17 15 14 12 11 9 7 6 7 7 6 6 6 7 8 7 8 10 11 9 8 8 7 7 7 8 8 8 6 5 7 11 18 21 19 15 8 5 14 13 8 6 6 7 6 5
35 34 34 34 34 32 29 25 23 20 17 15 14 15 17 19 21 21 20 19 17 13 9 10 15 22 25 20 12 10 11 10 7 10 14 17 19 21 21 22 21 18 15 13 10 8 7 7 6 7 8 7 6 6 7 7 6 7 9 7 7 8 10 8 7 8 11 14 14 11 8 9 17 25 26 21 17 11 4 10 11 7 6 5 6 7 7
36 35 34 34 34 32 28 25 21 19 16 12 10 12 15 19 21 21 20 19 19 19 18 16 17 17 16 15 15 14 12 10 8 10 12 14 18 19 18 19 19 17 15 12 9 8 8 9 10 10 8 5 3 4 4 5 6 8 9 9 11 15 17 16 14 15 18 22 24 20 14 16 24 30 29 23 19 15 7 7 10 7 4 4 4 7 9
36 35 35 35 34 31 27 24 20 17 14 10 7 8 10 13 15 16 18 18 17 18 17 11 7 9 14 18 18 13 9 10 11 11 11 14 17 19 19 19 18 16 15 13 11 10 9 9 11 12 12 11 7 3 3 5 7 8 10 14 17 20 21 22 21 20 22 24 26 25 23 25 30 33 31 26 21 17 11 9 9 6 2 2 3 8 9
36 35 35 36 33 27 23 20 17 16 13 9 7 6 5 6 6 5 8 11 12 15 15 11 8 10 15 17 15 12 12 13 11 9 10 12 14 17 19 19 17 17 17 16 15 13 10 9 8 8 11 14 10 4 4 7 8 9 12 17 19 21 22 24 26 27 27 30 32 32 31 33 34 31 26 23 21 16 13 14 12 6 2 2 5 8 9
35 36 36 35 29 22 17 15 13 14 13 10 9 8 7 8 8 4 4 7 9 13 12 7 6 6 7 9 14 15 13 10 6 6 8 9 11 14 17 18 17 17 17 15 12 10 11 12 12 11 12 13 9 4 6 8 9 14 21 23 21 22 24 27 31 32 30 30 30 25 23 27 30 25 20 18 17 15 15 18 18 14 9 7 6 6 7
35 36 36 32 25 18 14 12 10 11 11 10 9 10 10 10 8 5 5 7 9 12 11 5 3 4 4 8 13 13 9 6 4 5 6 6 7 8 11 14 15 14 15 13 9 7 8 10 10 10 12 13 9 3 5 10 14 22 29 30 27 29 30 30 32 34 32 31 29 23 20 20 20 19 17 16 16 15 16 18 20 18 12 6 4 4 4
36 36 33 28 22 16 13 11 9 9 9 9 7 7 7 7 7 7 8 8 9 9 8 4 2 3 5 8 8 6 6 7 5 4 4 3 6 6 6 8 10 10 12 14 11 8 8 7 6 7 8 9 9 6 7 11 15 21 25 27 29 30 28 27 31 35 33 29 26 24 23 20 15 15 15 15 15 15 14 16 17 18 16 12 8 7 7
35 34 29 25 20 15 12 11 11 10 10 8 5 5 5 6 8 10 12 11 7 5 5 4 3 3 4 6 4 3 6 8 6 5 4 2 4 6 5 6 6 6 8 10 9 8 8 7 7 6 4 4 6 7 7 8 13 18 22 26 29 27 21 19 25 27 22 17 16 17 18 17 17 15 13 12 13 13 13 14 15 18 19 18 14 12 10
33 31 26 22 19 15 12 13 14 13 12 10 8 8 7 4 4 8 13 14 9 4 3 2 3 2 2 3 3 5 8 7 6 5 5 3 3 5 5 4 4 4 6 7 5 6 6 6 5 5 4 4 6 7 8 13 19 23 27 29 30 28 21 20 24 24 16 11 11 13 16 18 17 15 13 11 11 12 14 14 14 17 18 17 16 14 12
31 28 24 21 19 15 13 16 19 18 15 12 8 6 3 5 4 4 12 14 11 8 5 2 3 4 3 3 4 5 6 6 6 5 3 2 2 3 4 3 2 3 4 4 4 4 5 5 5 5 5 6 9 14 20 24 25 27 31 34 32 28 24 22 22 19 11 6 7 12 17 19 18 17 17 15 13 13 15 15 15 17 18 17 16 15 14
28 25 22 22 20 16 15 19 22 22 17 9 3 2 3 6 6 5 8 8 7 7 6 4 5 5 4 5 6 6 5 5 6 5 2 2 3 2 3 2 1 1 2 3 2 3 4 3 3 4 6 7 13 22 28 31 32 32 31 28 23 18 15 16 14 10 7 6 9 15 18 19 20 21 21 20 17 15 15 16 17 18 18 17 17 16 15
25 23 21 22 21 18 18 20 21 18 12 6 5 4 4 4 4 3 4 3 3 3 4 5 5 5 5 6 8 8 6 4 3 3 2 3 4 2 1 2 2 2 3 2 2 5 4 2 1 4 5 5 13 26 32 30 26 22 16 14 18 15 8 8 8 10 11 10 14 20 23 23 24 24 23 23 21 18 16 17 18 18 18 17 18 19 19
25 24 22 21 21 20 19 20 19 15 9 5 3 3 3 3 3 2 2 1 2 3 4 4 4 5 6 7 6 5 2 3 3 4 3 3 4 3 1 2 3 3 3 2 4 6 4 2 2 4 5 7 14 23 24 20 17 15 13 17 23 21 11 3 2 7 11 13 16 20 22 24 25 24 23 22 22 20 19 20 20 20 20 20 20 20 20
26 24 21 19 18 18 20 21 19 13 7 5 3 1 1 1 2 4 3 0 2 2 4 4 4 4 4 6 6 4 3 3 5 5 3 2 4 4 2 2 4 3 2 2 5 4 2 3 2 2 7 15 24 29 31 30 28 27 24 20 21 24 20 12 7 11 14 16 17 19 21 22 22 22 22 23 23 22 22 22 23 23 22 22 21 21 21
22 21 19 17 16 16 17 20 18 11 5 4 4 1 0 0 0 2 2 0 1 1 3 3 3 3 2 3 4 4 3 3 3 3 2 3 4 4 2 2 3 2 1 3 5 3 1 2 2 2 10 23 33 37 37 34 33 33 30 24 22 25 27 24 18 16 16 17 17 19 20 21 21 21 23 24 24 23 23 22 22 22 22 22 23 24 25
17 18 17 15 14 14 12 13 14 9 2 1 4 3 2 3 3 1 1 2 3 3 3 2 3 3 2 1 2 2 2 2 2 1 2 2 2 3 2 1 2 2 2 3 4 3 2 3 4 6 14 24 30 33 34 35 35 36 37 36 33 30 30 29 27 24 21 20 21 21 20 19 19 20 22 22 23 22 22 21 20 20 20 22 25 28 29
14 17 17 12 11 11 9 7 9 9 3 2 4 4 4 6 6 3 4 7 9 9 9 6 3 3 2 2 3 3 2 2 3 2 1 1 1 1 2 2 2 2 2 3 3 2 2 4 6 11 18 25 29 31 33 33 33 33 36 40 43 41 37 35 34 34 33 30 29 26 22 20 19 19 20 21 22 22 21 21 21 22 24 27 29 30 29
15 16 14 9 8 11 8 4 6 7 4 3 4 3 4 7 7 5 8 12 13 14 17 16 8 3 3 2 3 3 2 2 2 2 2 2 1 2 2 3 3 2 2 3 2 2 4 5 8 13 20 24 27 31 33 33 33 34 35 37 41 45 45 44 43 43 43 41 39 36 32 30 29 28 26 25 24 24 24 25 25 25 27 30 33 33 32
16 14 9 4 6 10 8 3 3 4 3 5 7 7 7 8 8 8 13 17 18 19 21 18 10 4 3 2 2 2 3 2 1 2 2 2 2 3 3 2 2 3 4 4 4 5 6 7 8 15 21 25 27 30 33 34 35 37 37 37 39 42 43 44 45 47 47 47 47 45 41 40 41 41 38 35 32 31 31 32 32 33 34 36 37 36 34
15 13 9 4 3 6 6 4 4 6 7 9 12 13 13 11 11 14 18 20 19 21 21 16 9 5 5 5 3 4 5 4 3 3 3 2 2 2 2 2 3 3 4 4 5 5 6 8 12 18 23 27 30 33 35 35 37 38 39 39 40 40 41 41 43 43 43 43 42 41 40 41 43 44 42 41 39 38 37 37 37 36 36 37 36 34 33
13 10 8 4 2 3 5 6 8 10 11 12 14 17 20 19 18 20 22 20 17 18 20 15 8 4 5 7 5 3 4 5 4 3 3 3 1 2 3 3 3 3 3 5 6 6 6 11 17 21 24 28 32 34 34 35 37 39 39 40 41 41 41 41 40 39 38 38 36 35 35 37 39 38 37 38 38 37 35 34 33 32 31 31 30 29 30
18 12 9 5 2 3 8 11 9 10 16 21 22 25 26 23 21 22 23 20 16 15 14 13 8 4 4 6 5 2 4 6 5 3 4 4 3 3 4 4 4 5 5 5 6 8 11 15 19 23 26 29 30 32 33 35 37 38 39 40 40 41 41 40 38 36 35 36 35 34 34 34 35 34 33 34 35 33 31 29 29 29 28 27 26 26 27
20 16 13 10 5 5 11 12 9 9 16 23 26 26 24 23 25 26 24 20 18 17 14 11 9 5 3 4 3 2 3 5 4 3 4 5 4 3 4 4 4 5 6 6 8 11 15 17 20 23 26 27 28 30 32 34 36 38 38 39 39 39 39 38 36 34 33 33 33 32 31 30 31 31 30 30 30 30 28 28 28 27 27 26 26 25 26
12 11 13 15 12 8 8 8 8 8 11 15 20 22 23 23 26 27 23 19 19 17 12 7 6 3 3 4 4 3 4 5 4 4 5 5 4 3 4 4 4 5 7 10 13 14 16 18 20 22 23 25 26 28 30 32 34 36 36 37 37 37 37 36 35 34 32 30 29 28 28 28 28 28 28 27 26 27 27 28 27 25 24 24 23 23 24
8 8 11 16 19 17 12 9 9 10 13 16 20 24 26 26 24 23 24 24 21 15 10 7 5 3 4 5 4 4 3 3 4 6 5 4 4 4 4 4 5 7 8 10 12 14 16 17 19 20 22 23 25 27 29 31 33 34 35 35 35 35 36 36 35 34 32 29 26 24 24 24 24 23 23 23 23 25 26 26 23 22 21 21 21 21 22
Wind_Direction
349 348 349 350 350 350 351 352 352 351 350 352 352 352 355 341 324 348 9 16 19 28 51 15 8 356 350 341 316 311 330 343 341 340 343 345 340 328 315 319 331 347 350 343 342 350 10 36 49 71 78 64 22 349 347 346 351 13 35 26 3 344 197 198 204 200 296 218 218 234 250 226 219 214 202 198 198 198 208 217 175 185 202 186 220 253 247
350 349 349 351 351 351 352 352 353 353 352 354 352 350 348 326 312 340 11 29 37 39 31 7 354 339 345 340 330 340 356 355 349 339 338 348 346 328 328 337 337 339 340 3 27 9 12 62 57 52 64 54 8 350 351 356 7 25 16 356 335 312 213 190 192 192 207 216 219 218 203 201 223 223 211 206 203 205 211 203 134 211 208 195 217 239 198
352 351 349 350 350 351 352 353 353 353 352 354 353 348 343 332 313 330 353 20 45 48 34 8 349 346 346 334 336 356 356 353 353 337 336 353 348 329 339 344 345 352 350 36 55 23 22 60 57 59 42 28 4 347 346 358 12 13 3 354 333 266 7 217 208 205 204 206 211 213 196 194 224 230 217 211 207 209 212 194 188 217 203 196 219 235 145
353 350 348 348 348 349 351 352 352 352 352 353 353 352 347 341 330 334 340 359 31 37 27 11 357 350 348 334 335 353 351 349 351 342 347 358 345 339 6 3 358 6 0 15 55 24 21 45 60 66 34 16 351 338 337 1 13 6 0 356 344 199 54 5 308 237 217 224 257 309 351 298 247 280 256 225 215 214 212 209 210 196 173 209 225 237 257
352 350 349 347 347 347 349 350 350 351 351 352 354 357 356 342 338 348 343 344 359 5 7 4 356 341 340 330 317 339 348 352 352 348 357 1 344 335 23 21 13 9 359 352 14 10 17 46 46 44 29 16 341 335 341 19 12 7 3 357 351 163 57 41 33 20 4 332 312 311 317 278 265 283 281 268 244 224 219 221 204 148 182 232 221 211 244
353 351 349 346 346 347 347 348 349 349 350 352 356 360 1 346 329 337 344 339 338 341 341 342 336 328 332 331 312 334 347 356 358 350 336 349 354 344 15 17 7 354 351 342 339 6 36 52 29 24 18 6 347 351 26 44 13 10 6 4 5 305 39 48 11 348 337 315 307 304 287 259 259 268 268 270 271 249 236 233 212 177 209 241 211 178 225
353 350 349 346 346 347 347 347 347 348 349 352 358 360 351 335 320 323 336 329 315 311 312 317 322 325 327 330 336 339 343 347 354 351 319 329 14 22 11 3 352 341 343 348 354 9 28 30 27 21 3 354 348 354 12 39 16 9 3 10 11 318 6 37 349 328 322 314 311 317 313 282 274 269 264 265 266 261 254 248 239 227 234 248 238 203 216
354 350 348 346 345 345 347 347 346 347 348 350 355 354 342 333 319 314 319 318 312 311 312 315 321 327 326 336 352 344 337 339 345 340 305 287 355 17 5 352 343 331 333 343 357 17 15 358 352 352 345 344 358 4 6 10 4 2 360 5 360 339 6 25 347 322 310 318 323 324 321 309 291 273 261 258 257 254 249 243 244 246 245 251 256 247 229
354 352 349 345 343 343 345 346 346 346 346 346 348 346 338 331 321 312 308 311 318 319 324 326 321 322 332 342 346 339 331 336 339 329 301 263 339 355 345 338 335 327 326 333 342 352 346 322 303 306 300 291 303 316 317 332 344 355 358 347 343 333 320 11 350 310 293 326 338 328 324 312 284 264 256 250 245 246 247 240 234 234 236 242 249 254 255
352 351 350 346 342 341 341 342 344 344 343 343 340 336 335 331 324 318 306 301 315 318 322 325 320 323 337 333 331 327 322 330 336 333 323 128 337 332 326 322 324 325 321 329 334 328 318 302 292 288 274 267 276 276 275 286 293 302 321 322 317 303 293 319 326 291 292 316 330 329 324 302 267 255 254 250 249 253 252 246 238 229 228 237 241 245 250
350 349 349 346 342 339 338 338 339 341 341 339 332 330 333 326 316 313 304 284 301 311 315 318 315 312 317 320 321 320 319 325 333 332 321 314 315 317 317 310 307 310 307 317 321 315 306 297 287 274 261 257 260 260 264 268 261 250 258 274 276 272 270 282 286 273 289 306 324 319 289 256 251 273 293 265 260 266 266 259 252 237 227 241 259 256 241
349 348 347 345 341 337 334 333 334 335 336 333 325 327 333 324 310 306 296 282 301 306 299 297 299 299 306 311 311 312 316 321 321 315 307 307 311 314 316 310 301 308 315 315 315 311 306 298 282 262 247 241 244 248 253 255 251 242 231 226 247 260 251 253 240 243 278 303 313 279 239 248 315 33 62 278 244 264 293 279 266 259 247 245 250 244 234
344 344 344 343 340 334 330 328 327 327 329 326 320 320 324 320 306 293 282 278 288 290 291 296 295 291 294 300 302 308 313 312 310 308 304 306 311 313 317 316 309 316 319 314 308 304 301 291 274 256 237 226 230 238 240 240 242 238 226 218 225 234 239 242 222 225 247 258 248 234 247 323 314 311 83 4 248 297 305 270 224 9 354 301 267 257 254
339 339 339 337 336 333 326 322 321 320 320 319 316 315 316 313 299 285 279 276 280 288 293 298 297 291 286 292 304 311 314 314 313 313 312 311 308 311 319 320 317 318 317 310 296 284 276 279 284 280 240 209 214 226 228 230 234 233 225 214 212 219 229 232 220 218 217 230 246 253 304 312 297 269 80 27 278 354 325 272 184 48 33 3 327 305 294
336 337 336 333 332 329 324 318 314 312 312 312 309 307 310 307 295 282 276 273 283 292 284 271 274 287 292 299 309 312 311 316 320 319 319 315 305 310 319 321 322 322 318 310 289 270 289 299 290 289 265 232 249 237 210 217 227 227 224 215 205 207 217 222 223 215 206 229 252 257 264 268 247 144 74 331 247 227 221 233 233 96 44 4 339 318 313
335 335 335 333 329 325 322 315 309 306 305 303 300 300 304 302 290 282 276 271 274 286 277 263 271 286 292 297 303 301 296 309 324 320 319 323 319 319 323 326 328 327 322 315 289 280 297 289 276 280 279 292 309 290 242 246 235 209 212 210 204 205 213 223 239 238 212 217 234 238 241 237 145 128 344 332 218 193 196 235 240 81 18 354 341 325 317
333 333 333 332 329 326 322 313 305 301 298 295 293 293 296 295 288 283 275 265 261 264 270 276 279 280 285 291 293 291 288 298 312 312 308 318 320 321 328 334 335 336 335 330 321 315 290 271 281 281 268 280 294 275 265 267 261 106 115 185 197 202 211 217 229 239 228 224 236 239 241 243 124 149 299 327 167 175 202 249 260 37 356 339 340 332 319
329 328 328 328 326 327 325 317 306 295 292 291 288 286 289 288 281 276 267 262 263 267 271 274 271 268 270 278 286 288 291 297 302 302 300 306 312 323 332 333 333 341 349 341 323 331 309 292 298 287 273 259 252 265 278 267 254 306 56 109 196 201 210 213 219 230 229 230 242 248 250 240 164 176 310 70 153 194 227 247 280 354 336 333 331 326 323
327 324 322 320 320 322 326 324 313 295 285 285 281 279 283 282 275 271 265 260 259 264 268 268 266 268 269 271 276 277 278 280 282 289 296 298 318 330 323 315 299 316 336 340 318 318 311 308 321 294 277 227 200 277 292 255 265 317 359 330 228 202 206 215 222 227 226 230 242 255 267 224 151 159 137 134 182 237 264 299 311 303 322 335 326 319 331
326 325 322 318 315 315 320 323 316 299 283 278 275 274 278 279 274 269 264 260 260 270 277 274 267 268 268 263 263 267 270 270 265 263 270 280 315 329 321 303 70 334 323 322 329 335 315 304 316 308 285 289 318 321 310 276 287 297 287 286 265 219 222 223 216 213 219 232 235 243 267 193 143 159 173 183 217 286 328 321 313 322 335 332 322 324 336
327 326 323 319 316 315 314 314 312 303 289 276 270 270 273 275 273 268 265 264 264 272 281 279 269 272 272 264 260 260 261 261 259 257 265 275 290 308 305 314 332 326 334 346 322 325 22 327 311 291 292 296 319 334 326 315 308 273 245 267 260 218 225 247 238 216 213 221 218 220 300 328 278 241 218 182 201 262 272 275 300 342 343 330 323 327 332
328 328 325 320 317 318 316 310 307 303 293 278 265 263 266 270 272 270 265 262 260 264 273 281 283 283 281 277 274 271 266 262 259 255 257 265 265 253 256 278 288 277 276 307 297 297 336 312 287 296 297 290 297 314 321 322 314 295 264 263 246 189 14 308 275 263 251 254 266 288 303 307 301 295 292 160 167 203 208 222 274 341 341 337 322 320 327
329 329 326 321 320 321 318 313 307 302 295 282 265 257 259 266 270 268 266 266 266 272 280 286 286 285 286 289 293 285 269 259 253 245 240 243 252 255 252 255 259 256 246 244 253 286 320 293 276 290 292 283 293 311 312 289 282 292 289 271 277 318 334 321 276 292 303 288 265 264 277 287 291 295 294 240 180 175 172 152 81 39 3 350 334 326 333
330 329 326 323 324 323 319 313 308 302 296 285 267 257 258 263 264 261 261 263 267 277 286 285 278 282 292 302 302 271 254 252 251 245 232 227 231 242 244 239 235 235 239 246 254 261 272 287 278 270 286 293 281 293 291 276 279 294 290 283 288 303 316 312 283 287 301 289 253 254 277 289 289 285 280 262 229 180 122 85 61 48 26 10 5 353 346
330 329 327 324 325 325 320 313 307 301 295 284 270 259 256 256 257 256 253 252 260 274 287 286 283 285 292 290 279 282 292 288 269 253 236 227 225 229 237 241 239 239 249 260 261 250 252 270 268 272 289 284 246 272 277 265 281 306 298 286 284 297 329 326 295 273 266 274 282 287 293 295 290 278 269 263 240 195 102 66 50 43 49 41 24 14 9
331 330 327 326 327 325 320 313 307 302 295 285 274 263 254 252 255 255 250 249 257 263 263 274 282 283 286 295 299 300 301 295 274 252 243 238 237 240 245 249 249 248 253 260 260 257 262 267 263 275 281 253 229 259 267 265 281 290 281 272 269 279 295 292 278 279 279 275 280 284 282 282 279 268 261 256 241 213 94 66 50 33 52 72 66 60 62
332 331 328 327 327 325 318 312 308 303 297 288 276 265 257 253 253 254 251 246 245 249 252 262 273 285 295 301 307 310 304 297 276 250 242 239 240 243 244 243 243 244 250 255 258 263 267 265 260 263 262 257 255 256 259 268 275 273 271 269 261 264 274 268 265 278 273 257 264 285 286 277 280 278 270 256 238 220 106 75 60 28 21 65 82 77 74
332 332 331 329 327 324 317 311 308 305 301 291 275 263 257 252 250 253 254 247 240 241 256 271 279 291 299 301 305 316 316 313 293 258 247 240 238 237 236 237 238 239 241 247 253 257 253 251 255 257 253 255 259 253 250 258 261 260 263 252 223 231 250 257 262 267 263 264 275 292 305 293 289 292 288 268 244 229 150 94 76 39 7 32 70 71 63
332 332 332 330 327 322 316 311 309 308 305 295 272 261 258 254 252 252 251 248 245 247 257 273 283 288 291 296 308 319 324 318 296 265 247 239 236 232 229 230 232 231 231 236 241 247 249 250 255 257 246 229 245 268 255 251 258 258 253 241 233 241 248 249 254 263 268 274 278 280 281 276 277 287 291 280 260 249 218 131 100 73 15 356 55 68 62
334 335 334 331 328 324 318 313 312 312 307 289 262 260 263 261 261 255 249 246 245 244 249 260 279 282 283 292 305 319 323 309 297 277 258 246 236 231 229 227 226 224 224 227 231 241 253 251 248 250 239 224 232 274 260 251 264 259 248 247 249 252 254 254 255 260 266 273 276 274 270 269 274 281 284 275 259 248 221 167 126 91 2 310 66 68 62
336 337 336 332 330 327 323 317 312 310 305 286 259 246 249 270 292 271 237 230 226 229 238 249 265 282 289 292 299 315 323 318 310 292 273 259 246 240 236 229 221 215 216 224 231 239 247 243 239 250 236 218 217 244 259 259 272 270 258 254 250 248 254 260 264 264 264 268 273 273 269 269 273 275 270 257 244 233 205 176 157 132 96 103 90 66 54
339 338 336 333 334 334 329 321 311 306 309 301 279 263 263 285 303 289 203 187 193 209 223 245 275 282 285 293 304 317 327 327 317 297 277 258 245 241 235 228 222 215 214 222 228 233 240 237 236 249 242 218 208 240 256 245 255 264 265 267 265 263 266 270 272 270 265 263 264 263 260 263 263 255 244 236 231 217 188 166 151 132 112 98 85 64 46
341 339 336 337 341 342 337 333 324 317 319 315 300 290 286 288 294 273 215 180 174 195 209 223 282 272 269 301 314 325 342 343 318 303 289 258 232 224 222 222 220 214 214 219 220 228 240 231 226 245 244 222 209 237 255 238 243 255 264 272 275 273 272 273 273 272 270 264 256 246 245 255 250 233 223 223 219 205 180 159 146 139 140 141 111 94 80
341 340 340 343 348 348 345 348 347 336 329 320 314 317 306 281 269 260 235 197 171 185 204 215 253 267 287 309 314 326 342 335 316 304 300 255 219 211 207 203 202 205 212 217 222 238 249 241 241 257 244 213 210 239 256 249 249 257 267 275 277 273 270 271 273 273 272 267 258 249 246 245 228 210 213 216 209 198 178 157 149 152 166 184 185 161 150
342 343 345 350 353 352 353 357 359 357 352 343 341 353 335 291 270 258 237 212 181 172 196 216 238 267 303 310 309 326 332 325 309 297 302 265 225 230 221 195 193 206 211 211 221 243 248 241 248 257 237 207 224 240 252 271 282 284 284 283 283 279 267 258 267 273 272 264 261 256 242 221 199 192 198 197 191 184 168 153 150 155 166 180 184 171 162
345 347 351 356 359 358 359 1 1 1 360 354 345 341 337 329 301 256 228 212 201 190 184 205 224 231 273 297 308 322 322 321 322 307 290 268 250 242 221 204 214 216 202 200 221 243 232 219 234 254 249 234 234 248 276 291 293 292 291 291 293 290 275 260 268 278 278 264 249 232 209 193 184 183 186 188 186 173 157 149 148 151 156 164 167 164 169
348 351 356 2 4 5 4 1 356 350 347 346 346 345 18 82 93 198 209 210 222 234 233 239 243 236 247 273 296 311 315 330 347 335 294 281 297 249 214 223 243 220 210 219 240 253 238 222 234 261 264 260 269 283 289 288 286 288 290 291 294 292 281 271 272 276 273 257 220 198 187 182 180 179 181 185 186 173 161 155 154 153 152 152 155 159 166
352 357 3 9 11 9 1 352 344 339 341 355 38 111 115 103 105 159 196 212 244 249 239 245 252 243 238 247 264 282 298 324 342 337 301 302 317 269 227 251 277 269 268 261 263 288 275 237 237 275 276 279 291 294 291 287 288 289 291 297 308 305 284 272 264 245 215 185 178 180 179 177 176 177 177 177 176 176 171 162 156 156 156 154 153 155 156
356 3 11 16 14 5 355 347 340 339 350 29 84 119 143 131 111 129 182 218 268 250 232 246 256 241 226 242 268 281 278 276 302 312 303 320 334 332 292 306 332 318 283 277 5 353 322 264 267 302 288 273 291 296 297 298 298 296 302 342 6 3 327 280 256 224 205 187 175 176 178 178 175 173 173 173 172 172 169 161 157 161 165 162 156 153 152
3 8 13 15 12 5 360 356 351 350 1 30 65 100 136 157 150 134 155 226 269 243 228 247 267 255 235 241 272 292 258 218 253 284 305 333 339 331 308 329 348 336 278 273 9 5 336 294 308 314 296 293 310 321 334 354 13 19 24 23 19 17 21 37 173 185 182 175 169 171 177 180 177 170 167 168 167 165 164 163 162 163 165 163 158 154 153
5 7 8 7 7 7 10 10 3 355 358 15 31 85 113 132 157 151 147 195 287 249 229 243 281 290 248 228 240 259 259 259 274 278 282 332 346 337 315 320 340 336 280 306 349 359 334 317 331 316 316 334 353 12 27 35 35 34 35 30 22 24 37 60 114 148 154 156 158 160 165 170 169 164 161 162 164 165 165 163 160 158 159 160 158 153 149
4 5 3 2 5 9 14 14 8 356 345 0 3 347 228 355 104 153 156 186 278 256 242 247 278 308 287 221 224 248 272 291 305 304 298 333 357 355 321 303 344 6 315 314 327 332 338 355 7 2 351 358 10 23 31 32 32 35 39 37 30 32 42 56 81 114 133 141 146 150 154 156 156 157 159 161 163 164 164 161 157 156 158 157 151 144 139
12 10 4 1 6 10 14 14 7 2 5 11 358 0 12 0 353 353 6 354 344 331 311 268 262 294 316 269 242 260 274 274 287 313 299 309 355 3 338 317 357 346 307 320 339 347 2 22 28 9 2 7 16 25 30 33 37 40 40 39 40 43 47 54 70 88 98 104 116 130 143 149 151 154 156 156 155 156 158 157 154 151 146 139 132 128 127
25 22 16 10 5 5 11 10 0 2 24 29 358 1 358 349 348 356 355 345 339 339 345 344 296 253 268 278 266 267 269 255 246 251 269 274 293 343 2 7 350 304 306 348 9 351 347 17 24 11 6 11 18 25 30 33 36 40 42 44 45 46 46 50 64 76 78 76 83 95 106 115 121 126 132 136 138 138 137 136 136 136 132 126 121 118 117
30 23 19 20 11 7 13 12 356 3 21 13 354 0 353 345 344 342 342 340 337 340 350 356 349 289 271 290 277 272 285 281 267 281 312 320 331 356 0 350 333 335 5 14 6 11 27 27 15 8 9 14 22 29 33 35 36 41 46 47 48 49 49 49 56 64 67 65 66 70 75 83 89 95 102 110 115 114 112 112 114 115 112 109 108 108 109
34 21 19 38 23 11 15 21 0 3 1 339 337 337 331 325 319 324 341 349 350 347 349 352 353 350 348 351 346 343 340 332 324 326 324 331 357 0 352 343 347 4 22 30 26 30 35 29 13 10 14 20 28 34 37 39 40 43 45 47 49 54 57 57 59 63 65 64 64 64 65 69 74 77 81 85 89 91 92 95 97 98 97 97 99 102 105
35 23 27 48 26 12 23 24 347 332 329 330 333 338 342 347 352 358 3 6 4 1 360 359 358 6 15 13 13 9 357 349 352 354 347 352 5 347 346 21 30 11 15 33 38 38 34 24 18 19 23 30 36 39 39 41 43 46 47 48 50 54 59 63 66 69 71 72 72 71 70 72 75 76 76 78 79 79 80 83 87 90 93 96 100 104 106
38 24 28 38 35 20 9 343 324 333 347 351 352 360 11 19 19 14 16 19 16 11 10 6 354 350 7 7 7 10 355 353 5 12 359 2 16 355 358 20 24 11 23 44 49 48 36 23 23 30 38 42 44 43 43 44 46 48 49 51 53 56 59 61 64 67 72 75 76 74 74 77 82 84 84 85 85 84 83 85 87 87 87 90 95 99 102
49 44 37 36 69 28 355 341 333 352 7 10 11 13 17 20 17 14 19 25 25 20 18 13 8 2 351 348 353 21 15 5 6 3 0 14 27 13 6 16 15 10 23 42 44 38 32 29 32 39 44 45 46 47 48 50 52 54 55 56 57 59 62 63 63 65 68 71 73 74 74 78 83 85 85 86 87 88 89 91 90 89 89 90 92 93 95
51 49 38 32 32 359 350 355 5 10 8 9 11 11 9 10 12 15 20 25 27 30 32 26 19 21 2 342 359 42 28 11 6 3 11 23 29 13 8 20 18 10 17 25 26 30 36 40 43 45 44 44 46 49 51 54 57 58 58 59 59 61 62 64 65 66 67 68 70 70 71 75 81 85 86 87 89 91 91 92 91 91 93 94 94 94 94
46 47 40 37 34 16 355 8 28 23 8 4 5 6 7 9 13 17 23 27 31 36 37 15 351 355 17 19 22 16 347 344 2 21 24 22 17 11 21 22 5 0 13 23 31 41 49 50 51 51 49 49 51 53 55 58 61 60 59 59 59 59 60 61 62 65 68 71 73 73 74 77 83 88 90 90 91 91 91 92 93 93 94 93 93 93 93
41 43 39 37 36 34 34 36 27 16 12 14 16 19 21 19 18 26 36 40 38 35 24 4 360 26 37 18 2 346 340 358 22 31 32 24 12 22 36 27 10 15 27 31 38 51 57 55 54 58 60 60 61 61 60 60 60 60 60 60 59 59 60 61 61 62 64 67 72 78 83 87 90 92 91 90 89 88 89 92 94 95 96 97 95 94 94